{"data":{"norad_id":66481,"epoch":"2026-09-20T02:29:18.332160Z","epoch_age_seconds":123870,"freshness":"FRESH","line1":"1 66481U 25262AB  26263.10368440  .00009348  00000+0  34880-3 0  9996","line2":"2 66481  43.0022 277.8597 0001421 264.1507  95.9183 15.27580372 48643","mean_motion":15.27580372,"eccentricity":0.0001421,"inclination_deg":43.0022,"raan_deg":277.8597,"arg_perigee_deg":264.1507,"mean_anomaly_deg":95.9183,"bstar":0.0003488,"rev_number":4864,"period_min":94.266725757589,"perigee_km":482.07300775209,"apogee_km":484.02295652401,"semimajor_km":6861.1849821381,"source":"CELESTRAK","updated_at":"2026-09-21T09:00:35.917587Z"}}